Terug naar catalogus

FENGYUN 1C DEB

ActiefPO
NORAD 29944·DEBRIS·🇨🇳 China

Gelanceerd May 10, 1999 vanaf Taiyuan Satellite Launch Center

Loading…

Volgende Passages (komende 24 uur)

TLE

VersSource: Space-Track

Epoch: Sep 13, 2026, 21:56 UTC

1 29944U 99025JS  26256.91438655  .00006645  00000-0  51480-3 0  9997
2 29944  99.0331 234.8680 0154901  72.3588 289.4475 14.92769456 45538

Volg FENGYUN 1C DEB in realtime met AllMySat

Download on the App Store